sat.trackr.live / text

‹ back to catalog

STARLINK-3135

NORAD 49424 · 2021-104S

PAYLOAD ACTIVE UNKNOWN

§ Identity

Operator
Country
US
Launch date
2021-11-13
Launch site
AFETR
Launch vehicle
Mass (kg)
RCS (m²)

Purposes: comms

External: N2YO · Heavens-Above · Gunter

§ Orbital elements

Epoch: 2026-09-03T16:48:17.654112Z

Period
93.90 min
Inclination
53.1597°
Eccentricity
0.0001215
Mean motion
15.33551477 rev/d
Perigee alt
464.4 km
Apogee alt
466.1 km
Semi-major
6,843.4 km
B*
-4.1559e-5
RAAN
140.5728°
Arg perigee
92.0131°
Mean anomaly
268.1011°
Rev number
26,562

§ Raw data

STARLINK-31351 49424U 21104S   26246.70020433 -.00001739  00000+0 -41559-4 0  99992 49424  53.1597 140.5728 0001215  92.0131 268.1011 15.33551477265628

JSON: /api/v1/satellites/49424 · /tle

For live sub-satellite position, see the globe view (requires WebGL).

§ Visibility from observer

Set your observer location to see the next 7 days of passes ≥ 10°. The values pass through the URL so the page stays shareable.

No JS? Fill the form by hand. The geolocation button needs JavaScript.